STARLINK-2334, 47792

Orbit data source: Space-Track

STARLINK-2334, 47792 is a payload satellite owned by SpaceX/Seattle (US) in LEO that was launched on Thu, 11 Mar 2021 UTC via an FALCON 9 launch vehicle from the Air Force Eastern Test Range (AFETR). Payload-class satellites include a variety of spacecraft equipped with specific instruments for various scientific and technological missions. These include communications satellites like Starlink; space stations such as the ISS; scientific satellites like the Hubble; Earth observation satellites from companies like Planet Labs, Umbra, and HawkEye 360; GPS; miniature CubeSats for education and research; and military/defense satellites.

Loading next visibility...
Identifier
47792, 2021-018F
Orbit
LEO
Country
Flag of USUS
Related business
Manufacturer
SpaceX/Seattle
Mission
Operational Commercial Communications
Bus & Motor
STARLINK, Unknown motor
Mass
260 kg wet, ~248 kg dry
Launch date (UTC)
2021-03-11 (5 years ago)
Launch vehicle
FALCON 9
Launch site
Air Force Eastern Test Range (AFETR)
Object type
Payload
Rocket body
Debris
Shape & HBR
Box + 1 Pan, 10.1 m
Radar Cross Section
13.562 m², Large (>1 m²)

Expand to show TLE details & history
Last TLE update: 9 hours ago

TLE from 9 hours ago
0 STARLINK-2334
1 47792U 21018F   26035.39648249  .00001510  00000-0  12023-3 0  9990
2 47792  53.0576  21.0777 0001419  84.5056 275.6095 15.06411213271866
Epoch: 2026-02-04T09:30Z
TLE epoch observation values (Epoch: 2026-02-04T09:30:56.087Z)
Latitude
0.00001°
Longitude
103.78035°
Altitude
547.961 km
Speed
7.589 km/s
True Right ascension
01h 24m 18s
True Declination
0° 00' 00"
Sunlit
Object was in daylight at epoch
Visualization orbit readout
Latitude
Unknown
Longitude
Unknown
Altitude
Unknown
Speed
Unknown
Apparent Right ascension
Unknown
Apparent Declination
Unknown
Sunlit
N/A
Visualization observer readout
Local Sidereal Time
20:00:28
Azimuth
Unknown
Elevation
Unknown
Doppler factor
Unknown
Orbital elements
Apogee altitude
548.43 km
Perigee altitude
546.465 km
Semi-major axis
6,925.584 km
Eccentricity
0.00014
Inclination
53.0576°
RAAN
21.0777°
Arg. of periapsis
84.5056°
True anomaly
275.59332°
Mean anomaly
275.6095°
Eccentric anomaly
275.60141°
Mean motion
3.76581 °/min
Orbital period
95.6 mins
BSTAR
0.00012023
Loading maneuver chart data...
Computing Atmospheric mass density...
Loading historical data...
Loading historical data...
Loading historical data...
Loading historical data...
Loading historical data...
Loading historical data...
Loading historical data...

Documentation

Showing up to 5 results
|